When you browse on this site, cookies collect data to enhance your experience and personalize the content and advertising you see.
Visit our Privacy Policy to learn more. By continuing to use the site, you agree to this use of cookies and data.
  • In Spain
  • List of Countries
  • For 7 days
  • Water Temperature
  • Satellite Maps
  • Weather Map
  • Weather Widgets
  • user-avatar
    Login

    Hourly Weather Lambaréné

    Today, 18 February, Monday

    Time Temperature Precipitation Wind Pressure Humidity
    00:00 +26°C° 0 mm 1 mps 754 mmHg 96%
    01:00 +26°C° 0 mm 1 mps 754 mmHg 98%
    02:00 +26°C° 0 mm 1 mps 754 mmHg 98%
    03:00 +26°C° 0 mm 1 mps 754 mmHg 98%
    04:00 +24°C° 0 mm 0 mps 753 mmHg 98%
    05:00 +24°C° 0 mm 0 mps 753 mmHg 98%
    06:00 +24°C° 0 mm 0 mps 754 mmHg 98%
    07:00 +24°C° 0 mm 0 mps 754 mmHg 98%
    08:00 +28°C° 0 mm 1 mps 754 mmHg 88%
    09:00 +30°C° 0 mm 1 mps 754 mmHg 78%
    10:00 +32°C° 0 mm 1 mps 754 mmHg 68%
    11:00 +33°C° 0 mm 1 mps 753 mmHg 65%
    12:00 +33°C° 0 mm 1 mps 753 mmHg 63%
    13:00 +34°C° 0 mm 1 mps 752 mmHg 60%
    14:00 +34°C° 0.1 mm 1 mps 752 mmHg 59%
    15:00 +34°C° 0.1 mm 1 mps 751 mmHg 58%
    16:00 +36°C° 0.1 mm 2 mps 750 mmHg 56%
    17:00 +32°C° 0.7 mm 2 mps 751 mmHg 68%
    18:00 +30°C° 0.7 mm 2 mps 751 mmHg 79%
    19:00 +28°C° 0.7 mm 2 mps 751 mmHg 91%
    20:00 +28°C° 0.1 mm 2 mps 752 mmHg 92%
    21:00 +27°C° 0.1 mm 2 mps 752 mmHg 93%
    22:00 +27°C° 0.1 mm 2 mps 753 mmHg 95%
    23:00 +27°C° 0 mm 1 mps 753 mmHg 95%

    Tomorrow, 19 February, Tuesday

    Time Temperature Precipitation Wind Pressure Humidity
    00:00 +27°C° 0 mm 1 mps 753 mmHg 95%
    01:00 +26°C° 0 mm 1 mps 753 mmHg 96%
    02:00 +26°C° 0 mm 1 mps 752 mmHg 96%
    03:00 +26°C° 0 mm 1 mps 752 mmHg 97%
    04:00 +26°C° 0 mm 1 mps 752 mmHg 97%
    05:00 +26°C° 0 mm 1 mps 752 mmHg 97%
    06:00 +26°C° 0 mm 1 mps 752 mmHg 97%
    07:00 +24°C° 0 mm 0 mps 752 mmHg 97%
    08:00 +28°C° 0 mm 1 mps 753 mmHg 87%
    09:00 +30°C° 0 mm 1 mps 753 mmHg 77%
    10:00 +32°C° 0 mm 1 mps 753 mmHg 67%
    11:00 +34°C° 0 mm 1 mps 753 mmHg 61%
    12:00 +35°C° 0 mm 1 mps 752 mmHg 54%
    13:00 +36°C° 0 mm 1 mps 752 mmHg 48%
    14:00 +36°C° 0.4 mm 2 mps 751 mmHg 53%
    15:00 +35°C° 0.4 mm 2 mps 750 mmHg 58%
    16:00 +34°C° 0.4 mm 2 mps 750 mmHg 63%
    17:00 +31°C° 1.1 mm 2 mps 750 mmHg 72%
    18:00 +29°C° 1.1 mm 1 mps 751 mmHg 81%
    19:00 +28°C° 1.1 mm 1 mps 751 mmHg 90%
    20:00 +27°C° 0.1 mm 1 mps 751 mmHg 91%
    21:00 +27°C° 0.1 mm 1 mps 752 mmHg 92%
    22:00 +27°C° 0.1 mm 1 mps 752 mmHg 92%
    23:00 +27°C° 0 mm 1 mps 752 mmHg 93%

    Day after tomorrow, 20 February, Wednesday

    Time Temperature Precipitation Wind Pressure Humidity
    00:00 +27°C° 0 mm 1 mps 752 mmHg 94%
    01:00 +24°C° 0 mm 0 mps 752 mmHg 95%
    02:00 +24°C° 0 mm 0 mps 752 mmHg 96%
    03:00 +24°C° 0 mm 0 mps 751 mmHg 97%
    04:00 +24°C° 0 mm 0 mps 751 mmHg 97%
    05:00 +24°C° 0 mm 0 mps 751 mmHg 97%
    06:00 +24°C° 0 mm 0 mps 752 mmHg 96%
    07:00 +26°C° 0 mm 1 mps 752 mmHg 95%
    08:00 +28°C° 0 mm 1 mps 753 mmHg 88%
    09:00 +29°C° 0 mm 1 mps 753 mmHg 80%
    10:00 +31°C° 0 mm 1 mps 754 mmHg 73%
    11:00 +32°C° 0.2 mm 1 mps 753 mmHg 68%
    12:00 +33°C° 0.2 mm 1 mps 753 mmHg 63%
    13:00 +34°C° 0.2 mm 1 mps 752 mmHg 58%
    14:00 +35°C° 0.1 mm 2 mps 752 mmHg 58%
    15:00 +35°C° 0.1 mm 2 mps 751 mmHg 58%
    16:00 +35°C° 0.1 mm 2 mps 750 mmHg 58%
    17:00 +32°C° 0.4 mm 2 mps 751 mmHg 67%
    18:00 +30°C° 0.4 mm 1 mps 752 mmHg 77%
    19:00 +28°C° 0.4 mm 1 mps 752 mmHg 87%
    20:00 +28°C° 0.4 mm 1 mps 753 mmHg 89%
    21:00 +27°C° 0.4 mm 1 mps 753 mmHg 90%
    22:00 +27°C° 0.4 mm 1 mps 754 mmHg 92%
    23:00 +27°C° 0.2 mm 1 mps 754 mmHg 93%

    21 February, Thursday

    Time Temperature Precipitation Wind Pressure Humidity
    00:00 +26°C° 0.2 mm 1 mps 754 mmHg 94%
    01:00 +26°C° 0.2 mm 1 mps 753 mmHg 95%
    02:00 +26°C° 0 mm 1 mps 753 mmHg 96%
    03:00 +26°C° 0 mm 1 mps 753 mmHg 96%
    04:00 +26°C° 0 mm 1 mps 752 mmHg 97%
    05:00 +26°C° 0 mm 1 mps 753 mmHg 96%
    06:00 +26°C° 0 mm 1 mps 753 mmHg 96%
    07:00 +24°C° 0 mm 0 mps 754 mmHg 95%
    08:00 +25°C° 0 mm 0 mps 754 mmHg 89%
    09:00 +27°C° 0 mm 0 mps 755 mmHg 82%
    10:00 +28°C° 0 mm 0 mps 756 mmHg 76%
    11:00 +30°C° 0 mm 0 mps 755 mmHg 68%
    12:00 +34°C° 0 mm 1 mps 754 mmHg 60%
    13:00 +35°C° 0 mm 1 mps 753 mmHg 52%
    14:00 +35°C° 0 mm 1 mps 752 mmHg 51%
    15:00 +36°C° 0 mm 2 mps 752 mmHg 51%
    16:00 +36°C° 0 mm 2 mps 751 mmHg 51%
    17:00 +34°C° 0.5 mm 2 mps 752 mmHg 63%
    18:00 +30°C° 0.5 mm 2 mps 752 mmHg 75%
    19:00 +28°C° 0.5 mm 1 mps 753 mmHg 87%
    20:00 +28°C° 1.1 mm 1 mps 754 mmHg 89%
    21:00 +27°C° 1.1 mm 1 mps 755 mmHg 90%
    22:00 +27°C° 1.1 mm 1 mps 755 mmHg 92%
    23:00 +26°C° 0 mm 1 mps 755 mmHg 93%

    22 February, Friday

    Time Temperature Precipitation Wind Pressure Humidity
    00:00 +26°C° 0 mm 1 mps 755 mmHg 94%
    01:00 +26°C° 0 mm 1 mps 754 mmHg 96%
    02:00 +26°C° 0 mm 1 mps 754 mmHg 96%
    03:00 +26°C° 0 mm 1 mps 753 mmHg 96%
    04:00 +25°C° 0 mm 1 mps 753 mmHg 97%
    05:00 +25°C° 0 mm 1 mps 753 mmHg 97%
    06:00 +25°C° 0 mm 1 mps 754 mmHg 96%
    07:00 +24°C° 0 mm 0 mps 754 mmHg 96%
    08:00 +26°C° 0 mm 0 mps 755 mmHg 86%
    09:00 +29°C° 0 mm 0 mps 755 mmHg 75%
    10:00 +31°C° 0 mm 0 mps 755 mmHg 65%
    11:00 +32°C° 0 mm 0 mps 755 mmHg 59%
    12:00 +35°C° 0 mm 1 mps 754 mmHg 53%
    13:00 +37°C° 0 mm 1 mps 753 mmHg 47%
    14:00 +36°C° 0 mm 1 mps 752 mmHg 47%
    15:00 +36°C° 0 mm 1 mps 751 mmHg 47%
    16:00 +36°C° 0 mm 1 mps 751 mmHg 47%
    17:00 +34°C° 0 mm 1 mps 751 mmHg 54%
    18:00 +32°C° 0 mm 1 mps 752 mmHg 62%
    19:00 +30°C° 0 mm 1 mps 752 mmHg 69%
    20:00 +29°C° 0.2 mm 1 mps 753 mmHg 76%
    21:00 +29°C° 0.2 mm 2 mps 753 mmHg 82%
    22:00 +28°C° 0.2 mm 2 mps 754 mmHg 89%
    23:00 +27°C° 0.6 mm 1 mps 754 mmHg 91%

    23 February, Saturday

    Time Temperature Precipitation Wind Pressure Humidity
    00:00 +27°C° 0.6 mm 1 mps 753 mmHg 93%
    01:00 +26°C° 0.6 mm 1 mps 753 mmHg 95%
    02:00 +26°C° 0 mm 1 mps 753 mmHg 95%
    03:00 +26°C° 0 mm 1 mps 753 mmHg 96%
    04:00 +26°C° 0 mm 1 mps 752 mmHg 96%
    05:00 +26°C° 0 mm 1 mps 753 mmHg 96%
    06:00 +26°C° 0 mm 1 mps 753 mmHg 97%
    07:00 +24°C° 0 mm 0 mps 754 mmHg 97%
    08:00 +28°C° 0 mm 1 mps 754 mmHg 89%
    09:00 +29°C° 0 mm 1 mps 755 mmHg 81%
    10:00 +31°C° 0 mm 1 mps 755 mmHg 73%
    11:00 +33°C° 0 mm 1 mps 754 mmHg 65%
    12:00 +34°C° 0 mm 1 mps 753 mmHg 57%
    13:00 +36°C° 0 mm 2 mps 753 mmHg 49%
    14:00 +36°C° 0.1 mm 2 mps 752 mmHg 52%
    15:00 +36°C° 0.1 mm 2 mps 751 mmHg 54%
    16:00 +35°C° 0.1 mm 3 mps 751 mmHg 57%
    17:00 +32°C° 0.6 mm 2 mps 751 mmHg 68%
    18:00 +30°C° 0.6 mm 2 mps 752 mmHg 79%
    19:00 +28°C° 0.6 mm 1 mps 752 mmHg 91%
    20:00 +27°C° 0 mm 1 mps 752 mmHg 92%
    21:00 +27°C° 0 mm 1 mps 753 mmHg 93%
    22:00 +27°C° 0 mm 1 mps 753 mmHg 94%
    23:00 +27°C° 0 mm 1 mps 753 mmHg 94%
    Show more